+ View the NASA Portal
+ Center for Near-Earth Object Studies
JPL Small-Body Database Browser
Search:
[
help
]
14290 (9072 P-L)
Classification:
Main-belt Asteroid
SPK-ID:
2014290
[
Ephemeris
|
Orbit Diagram
|
Orbital Elements
|
Mission Design
|
Physical Parameters
|
Discovery Circumstances
]
[ show orbit diagram ]
Orbital Elements at Epoch 2459000.5 (2020-May-31.0) TDB
Reference:
JPL 23
(heliocentric ecliptic J2000)
Element
Value
Uncertainty (1-sigma)
Units
e
.0574189910978132
3.4203e-08
a
2.794044631498434
1.4632e-08
au
q
2.633613407675532
9.5886e-08
au
i
5.978262827554826
4.1542e-06
deg
node
212.8562405432758
3.9538e-05
deg
peri
27.93460489281831
5.8821e-05
deg
M
39.62480591638767
4.1685e-05
deg
t
p
2458812.735673891933
(2019-Nov-25.23567389)
0.00019788
TDB
period
1705.879835513557
4.67
1.34e-05
3.669e-08
d
yr
n
.2110347941897218
1.6577e-09
deg/d
Q
2.954475855321335
1.5472e-08
au
Orbit Determination Parameters
# obs. used (total)
1036
data-arc span
21937 days (60.06 yr)
first obs. used
1960-10-17
last obs. used
2020-11-08
planetary ephem.
DE431
SB-pert. ephem.
SB431-N16
condition code
0
norm. resid. RMS
.51068
source
ORB
producer
Otto Matic
solution date
2020-Dec-18 02:56:09
Additional Information
Earth MOID
= 1.62319 au
Jupiter MOID
= 2.03564 au
T_jup
= 3.317
[ show covariance matrix ]
[
Ephemeris
|
Orbit Diagram
|
Orbital Elements
|
Mission Design
|
Physical Parameters
|
Discovery Circumstances
]
Physical Parameter Table
Parameter
Symbol
Value
Units
Sigma
Reference
Notes
absolute magnitude
H
14.5
n/a
MPO344418
diameter
diameter
5.608
km
0.045
urn:nasa:pds:neowise_diameters_albedos::2.0[mainbelt] (http://adsabs.harvard.edu/abs/2011ApJ...741...68M)
geometric albedo
albedo
0.098
0.013
urn:nasa:pds:neowise_diameters_albedos::2.0[mainbelt] (http://adsabs.harvard.edu/abs/2011ApJ...741...68M)
14290 (9072 P-L)
Discovered 1960-Oct-17 by van Houten, C. J., van Houten-Groeneveld, I., Gehrels, T. at Palomar
Reference:
20000320/Numbers.arc
Last Updated:
2004-04-19
Alternate Designations
9072 P-L
= 1996 HE11
[
Ephemeris
|
Orbit Diagram
|
Orbital Elements
|
Mission Design
|
Physical Parameters
|
Discovery Circumstances
]
2021-Jan-21 22:07 UT
(server date/time)
Site Manager:
Ryan S. Park
Webmaster
:
Alan B. Chamberlin